Regional Weather Roundup
Issued by NWS

Home | Current Version | Previous Version | Text Only | Print | Product List | Glossary On
Versions: 1 2 3 4 5 6 7 8 9 10 11 12 13 14 15 16 17 18 19 20 21 22 23 24 25 26 27 28 29 30 31 32 33 34 35 36 37 38 39 40 41 42 43 44 45 46 47 48 49 50
000
ASUS45 KPSR 291900
RWRAZ

PRELIMINARY ARIZONA REGIONAL HOURLY WEATHER ROUNDUP
NATIONAL WEATHER SERVICE PHOENIX AZ
1200 PM MST THU JAN 29 2015

NOTE: FAIR INDICATES FEW OR NO CLOUDS BELOW 12,000 FEET WITH NO
SIGNIFICANT WEATHER AND/OR OBSTRUCTIONS TO VISIBILITY.

AZZ001>003-036-292000-
NORTHWEST ARIZONA

CITY           SKY/WX    TMP DP  RH WIND       PRES   REMARKS
KINGMAN        CLOUDY    58  40  51 N7        30.16F
$$

AZZ004>008-015-016-018-292000-
NORTH CENTRAL ARIZONA

CITY           SKY/WX    TMP DP  RH WIND       PRES   REMARKS
GRAND CANYON   CLOUDY    47  31  53 E13G22    30.28F
PRESCOTT       CLOUDY    55  32  41 CALM      30.20F
FLAGSTAFF      NOT AVBL
PAYSON         CLOUDY    59  32  36 VRB7G18   30.23F
$$

AZZ009>014-017-292000-
NORTHEAST ARIZONA

CITY           SKY/WX    TMP DP  RH WIND       PRES   REMARKS
WINSLOW        NOT AVBL
SAINT JOHNS    CLOUDY    51  30  44 CALM      30.26F
WINDOW ROCK    CLOUDY    51  27  39 SE7       30.34F
$$

AZZ023-292000-
GREATER PHOENIX AREA

CITY           SKY/WX    TMP DP  RH WIND       PRES   REMARKS
PHOENIX        CLOUDY    67  47  48 SE3       30.07F
GLENDALE       CLOUDY    66  52  59 VRB5      30.09F
DEER VALLEY    CLOUDY    66  47  50 CALM      30.07F
SCOTTSDALE     CLOUDY    66  46  48 W3        30.08F
MESA-FALCON    CLOUDY    64  41  42 NE7       30.08F
MESA-GATEWAY   CLOUDY    63  52  67 CALM      30.10F
CHANDLER       CLOUDY    66  54  63 VRB5      30.08F
$$

AZZ027-028-292000-
SOUTHWEST MARICOPA COUNTY AND PINAL COUNTY

CITY           SKY/WX    TMP DP  RH WIND       PRES   REMARKS
CASA GRANDE    CLOUDY    63  50  63 CALM      30.08F
GILA BEND      MOCLDY    62  54  73 N6        30.06F
$$

AZZ503-504-507>509-292000-
SOUTHEAST ARIZONA

CITY           SKY/WX    TMP DP  RH WIND       PRES   REMARKS
TUCSON         CLOUDY    67  45  45 W5        30.11F
DAVIS-MONTHAN  CLOUDY    70  44  39 W7        30.08F
RYAN FIELD       N/A     66  46  48 CALM      30.11F
NOGALES        LGT RAIN  66  43  43 CALM      30.14F
SIERRA VISTA   CLOUDY    63  36  36 SE10      30.18F
SAFFORD        CLOUDY    60  36  40 SE9       30.19F
$$

AZZ020-021-025-026-031-292000-
SOUTHWEST ARIZONA

CITY           SKY/WX    TMP DP  RH WIND       PRES   REMARKS
YUMA           CLOUDY    70  46  42 N13       30.05F
$$

CAZ031-033-041-043-047-048-061-292000-
SOUTHERN CALIFORNIA

CITY           SKY/WX    TMP DP  RH WIND       PRES   REMARKS
DOWNTOWN L.A.  CLOUDY    71  42  35 SE3       30.05F
L.A. AIRPORT   CLOUDY    70  45  40 CALM      30.06F
SAN DIEGO      CLOUDY    70  41  34 W3        30.07F
BURBANK        CLOUDY    67  43  41 SE5       30.07S
ONTARIO        CLOUDY    70  43  37 CALM      30.07F
RIVERSIDE      CLOUDY    70  42  36 NE6       30.08F
PALM SPRINGS   CLOUDY    73  39  29 SW3       30.10F
EL CENTRO NAS  CLOUDY    69  51  52 CALM      30.07F
IMPERIAL       CLOUDY    67  50  54 SW5       30.07F
BLYTHE         CLOUDY    64  49  57 CALM      30.09S
$$

NVZ020-UTZ003-292000-
SOUTHERN NEVADA-UTAH

CITY           SKY/WX    TMP DP  RH WIND       PRES   REMARKS
LAS VEGAS      NOT AVBL
SALT LAKE CITY PTSUNNY   40  35  83 NW6       30.35F
$$

NMZ009-TXZ055-292000-
NEW MEXICO-WEST TEXAS

CITY           SKY/WX    TMP DP  RH WIND       PRES   REMARKS
ALBUQUERQUE    CLOUDY    52  25  35 E28G33    30.40F
EL PASO        CLOUDY    60  32  34 E9        30.31S
$$


........................KEY........................
SKY/WX - SKY CONDITION/WEATHER
TMP    - TEMPERATURE IN FAHRENHEIT
DP     - DEW POINT IN FAHRENHEIT
RH     - RELATIVE HUMIDITY IN PERCENT
WIND   - DIRECTION AND SPEED IN MILES PER HOUR (MPH)
VRB    - VARIABLE WIND DIRECTION
PRES   - MEAN SEA LEVEL PRESSURE IN INCHES OF MERCURY
         F - FALLING PRESSURE   R - RISING PRESSURE
         S - STEADY PRESSURE
VSB    - VISIBILITY IN MILES
HX     - HEAT INDEX IN FAHRENHEIT
WCI    - WIND CHILL INDEX IN FAHRENHEIT
TC     - TEMPERATURE IN CELSIUS WHICH IS ALSO KNOWN AS
         TEMPERATURE IN CENTIGRADE
AFB    - AIR FORCE BASE
         LUKE AFB IS LUKE AIR FORCE BASE
         DAVIS-MONTHAN IS DAVIS-MONTHAN AIR FORCE BASE
NAS    - NAVAL AIR STATION
         EL CENTRO NAS IS EL CENTRO NAVAL AIR STATION
N/A    - NOT AVAILABLE


USA.gov is the U.S. government's official web portal to all federal, state and local government web resources and services.